Location: Bernay
(48.6766°N, 2.9386°E)
Time: 11:08:00
(UTC+00:00)

BREEZE-M DEB (TANK) - Pass Details

Date: 12 January 2026
Orbit: 273 x 16126 km, 49.5° (Epoch: 16 February)

Event Time Altitude Azimuth Distance (km) Brightness Sun altitude
Rises 18:06:57 0° 230° (SW) 2,174 6.5 -17.7°
Reaches altitude 10° 18:08:16 10° 223° (SW) 1,557 5.4 -17.9°
Maximum altitude 18:11:12 53° 145° (SE) 891 3.2 -18.3°
Enters shadow 18:14:03 29° 83° (E) 1,895 4.4 -18.8°
